Estación de El Refugio
Ultimos registro cada 15 minutos 85
| N° | Estación | Fecha / Hora | Temperatura | Humedad | Lluvia | Velocidad | Dirección | Radiación | Presion |
| 85 | El Refugio | 07-05-2026 21:30 | 12,2 | 74 | 0 | 0 | 343 | 0 | 1044,6 |
| 84 | El Refugio | 07-05-2026 21:15 | 12,3 | 75 | 0 | 0 | 342 | 0 | 1044,6 |
| 83 | El Refugio | 07-05-2026 21:00 | 12,4 | 74 | 0 | 0 | 342 | 0 | 1044,2 |
| 82 | El Refugio | 07-05-2026 20:45 | 12,5 | 74 | 0 | 0 | 342 | 0 | 1044,2 |
| 81 | El Refugio | 07-05-2026 20:30 | 12,7 | 74 | 0 | 0 | 244 | 0 | 1044,4 |
| 80 | El Refugio | 07-05-2026 20:15 | 12,8 | 74 | 0 | 0 | 47 | 0 | 1044,2 |
| 79 | El Refugio | 07-05-2026 20:00 | 12,9 | 73 | 0 | 0 | 48 | 0 | 1044,1 |
| 78 | El Refugio | 07-05-2026 19:45 | 13,1 | 72 | 0 | 0 | 48 | 0 | 1044 |
| 77 | El Refugio | 07-05-2026 19:30 | 13,3 | 72 | 0 | 0 | 48 | 0 | 1044,1 |
| 76 | El Refugio | 07-05-2026 19:15 | 13,3 | 72 | 0 | 0 | 44 | 0 | 1044,1 |
| 75 | El Refugio | 07-05-2026 19:00 | 13,6 | 72 | 0 | 0 | 44 | 0 | 1044,3 |
| 74 | El Refugio | 07-05-2026 18:45 | 13,8 | 72 | 0 | 0 | 44 | 0 | 1043,8 |
| 73 | El Refugio | 07-05-2026 18:30 | 14 | 70 | 0 | 0 | 44 | 0 | 1044 |
| 72 | El Refugio | 07-05-2026 18:15 | 14,3 | 70 | 0 | 0 | 44 | 0 | 1044,2 |
| 71 | El Refugio | 07-05-2026 18:00 | 14,7 | 69 | 0 | 0 | 352 | 0 | 1043,9 |
| 70 | El Refugio | 07-05-2026 17:45 | 15,2 | 67 | 0 | 0 | 6 | 7 | 1043,8 |
| 69 | El Refugio | 07-05-2026 17:30 | 16,1 | 64 | 0 | 0 | 265 | 19 | 1043,8 |
| 68 | El Refugio | 07-05-2026 17:15 | 16,8 | 61 | 0 | 0 | 251 | 113 | 1043,6 |
| 67 | El Refugio | 07-05-2026 17:00 | 16,8 | 61 | 0 | 0 | 251 | 186 | 1043,6 |
| 66 | El Refugio | 07-05-2026 16:45 | 16,9 | 60 | 0 | 0 | 251 | 86 | 1043,6 |
| 65 | El Refugio | 07-05-2026 16:30 | 17,1 | 60 | 0 | 0 | 251 | 178 | 1043,3 |
| 64 | El Refugio | 07-05-2026 16:15 | 17,2 | 59 | 0 | 0 | 251 | 63 | 1043,3 |
| 63 | El Refugio | 07-05-2026 16:00 | 17,6 | 57 | 0 | 0 | 251 | 76 | 1043,3 |
| 62 | El Refugio | 07-05-2026 15:45 | 18,1 | 55 | 0 | 0 | 251 | 348 | 1043,7 |
| 61 | El Refugio | 07-05-2026 15:30 | 18,2 | 51 | 0 | 0 | 251 | 388 | 1043,5 |
| 60 | El Refugio | 07-05-2026 15:15 | 18,2 | 55 | 0 | 0 | 251 | 425 | 1043,7 |
| 59 | El Refugio | 07-05-2026 15:00 | 18,3 | 55 | 0 | 0 | 251 | 457 | 1043,7 |
| 58 | El Refugio | 07-05-2026 14:45 | 17,9 | 53 | 0 | 0 | 251 | 487 | 1043,6 |
| 57 | El Refugio | 07-05-2026 14:30 | 17,7 | 53 | 0 | 0 | 251 | 513 | 1043,7 |
| 56 | El Refugio | 07-05-2026 14:15 | 17,7 | 56 | 0 | 0 | 221 | 541 | 1043,9 |
| 55 | El Refugio | 07-05-2026 14:00 | 17,4 | 55 | 0 | 0 | 221 | 557 | 1043,9 |
| 54 | El Refugio | 07-05-2026 13:45 | 17,3 | 59 | 0 | 0 | 214 | 573 | 1044,2 |
| 53 | El Refugio | 07-05-2026 13:30 | 17,3 | 58 | 0 | 0 | 214 | 591 | 1044,8 |
| 52 | El Refugio | 07-05-2026 13:15 | 16,8 | 56 | 0 | 0 | 32 | 603 | 1045,1 |
| 51 | El Refugio | 07-05-2026 13:00 | 16,3 | 62 | 0 | 0 | 227 | 606 | 1045,3 |
| 50 | El Refugio | 07-05-2026 12:45 | 16,4 | 61 | 0 | 0 | 227 | 606 | 1045,5 |
| 49 | El Refugio | 07-05-2026 12:30 | 16,2 | 64 | 0 | 0 | 169 | 605 | 1045,6 |
| 48 | El Refugio | 07-05-2026 12:15 | 16 | 67 | 0 | 0 | 169 | 594 | 1045,9 |
| 47 | El Refugio | 07-05-2026 11:45 | 15,9 | 69 | 0 | 0 | 152 | 584 | 1045,9 |
| 46 | El Refugio | 07-05-2026 11:30 | 15,6 | 70 | 0 | 0 | 152 | 570 | 1045,8 |
| 45 | El Refugio | 07-05-2026 11:15 | 15,1 | 71 | 0 | 0 | 150 | 554 | 1046 |
| 44 | El Refugio | 07-05-2026 11:00 | 14,4 | 73 | 0 | 0 | 100 | 534 | 1046,1 |
| 43 | El Refugio | 07-05-2026 10:45 | 13,8 | 76 | 0 | 0 | 93 | 510 | 1046,4 |
| 42 | El Refugio | 07-05-2026 10:30 | 13,3 | 79 | 0 | 0 | 93 | 483 | 1046,4 |
| 41 | El Refugio | 07-05-2026 10:15 | 12,8 | 82 | 0 | 0 | 60 | 455 | 1046,4 |
| 40 | El Refugio | 07-05-2026 10:00 | 12,1 | 87 | 0 | 0 | 254 | 425 | 1046,5 |
| 39 | El Refugio | 07-05-2026 09:45 | 11,3 | 90 | 0 | 0 | 250 | 394 | 1046,4 |
| 38 | El Refugio | 07-05-2026 09:30 | 10,3 | 93 | 0 | 0 | 250 | 211 | 1046,5 |
| 37 | El Refugio | 07-05-2026 09:15 | 10,2 | 95 | 0 | 0 | 342 | 111 | 1046,4 |
| 36 | El Refugio | 07-05-2026 09:00 | 9,6 | 95 | 0 | 0 | 342 | 169 | 1046,3 |
| 35 | El Refugio | 07-05-2026 08:45 | 9,4 | 95 | 0 | 0 | 342 | 47 | 1046 |
| 34 | El Refugio | 07-05-2026 08:30 | 9,3 | 95 | 0 | 0 | 342 | 77 | 1045,8 |
| 33 | El Refugio | 07-05-2026 08:15 | 9,2 | 95 | 0 | 0 | 342 | 23 | 1045,7 |
| 32 | El Refugio | 07-05-2026 08:00 | 9,2 | 96 | 0 | 0 | 347 | 18 | 1045,8 |
| 31 | El Refugio | 07-05-2026 07:45 | 9,2 | 96 | 0 | 0 | 347 | 21 | 1045,5 |
| 30 | El Refugio | 07-05-2026 07:30 | 9,2 | 96 | 0 | 0 | 347 | 5 | 1045,3 |
| 29 | El Refugio | 07-05-2026 07:15 | 9,3 | 96 | 0 | 0 | 347 | 0 | 1045,3 |
| 28 | El Refugio | 07-05-2026 07:00 | 9,4 | 96 | 0 | 0 | 347 | 0 | 1045,2 |
| 27 | El Refugio | 07-05-2026 06:45 | 9,4 | 96 | 0 | 0 | 347 | 0 | 1045 |
| 26 | El Refugio | 07-05-2026 06:30 | 9,6 | 96 | 0 | 0 | 347 | 0 | 1044,7 |
| 25 | El Refugio | 07-05-2026 06:15 | 9,6 | 96 | 0 | 0 | 347 | 0 | 1044,5 |
| 24 | El Refugio | 07-05-2026 06:00 | 9,5 | 96 | 0 | 0 | 347 | 0 | 1044,4 |
| 23 | El Refugio | 07-05-2026 05:45 | 9,6 | 96 | 0 | 0 | 347 | 0 | 1044,3 |
| 22 | El Refugio | 07-05-2026 05:30 | 9,8 | 95 | 0 | 0 | 347 | 0 | 1043,8 |
| 21 | El Refugio | 07-05-2026 05:15 | 10 | 95 | 0 | 0 | 347 | 0 | 1043,9 |
| 20 | El Refugio | 07-05-2026 05:00 | 10,2 | 96 | 0 | 0 | 347 | 0 | 1043,5 |
| 19 | El Refugio | 07-05-2026 04:45 | 10,2 | 96 | 0 | 0 | 347 | 0 | 1043,5 |
| 18 | El Refugio | 07-05-2026 04:15 | 10,3 | 96 | 0 | 0 | 347 | 0 | 1043,4 |
| 17 | El Refugio | 07-05-2026 04:00 | 10,3 | 96 | 0 | 0 | 347 | 0 | 1043,4 |
| 16 | El Refugio | 07-05-2026 03:45 | 10,4 | 96 | 0 | 0 | 347 | 0 | 1043,3 |
| 15 | El Refugio | 07-05-2026 03:30 | 10,3 | 96 | 0 | 0 | 347 | 0 | 1043,4 |
| 14 | El Refugio | 07-05-2026 03:15 | 10,4 | 96 | 0 | 0 | 347 | 0 | 1043,4 |
| 13 | El Refugio | 07-05-2026 03:00 | 10,4 | 95 | 0 | 0 | 347 | 0 | 1043,4 |
| 12 | El Refugio | 07-05-2026 02:45 | 10,5 | 96 | 0 | 0 | 347 | 0 | 1043,3 |
| 11 | El Refugio | 07-05-2026 02:30 | 10,6 | 96 | 0 | 0 | 347 | 0 | 1043,3 |
| 10 | El Refugio | 07-05-2026 02:15 | 10,6 | 95 | 0 | 0 | 347 | 0 | 1043,2 |
| 9 | El Refugio | 07-05-2026 02:00 | 10,7 | 95 | 0 | 0 | 347 | 0 | 1043,3 |
| 8 | El Refugio | 07-05-2026 01:45 | 10,7 | 95 | 0 | 0 | 347 | 0 | 1043 |
| 7 | El Refugio | 07-05-2026 01:30 | 10,7 | 95 | 0 | 0 | 347 | 0 | 1042,9 |
| 6 | El Refugio | 07-05-2026 01:15 | 10,7 | 95 | 0 | 0 | 347 | 0 | 1043,1 |
| 5 | El Refugio | 07-05-2026 01:00 | 11 | 95 | 0 | 0 | 347 | 0 | 1042,9 |
| 4 | El Refugio | 07-05-2026 00:45 | 11,2 | 95 | 0 | 0 | 347 | 0 | 1042,8 |
| 3 | El Refugio | 07-05-2026 00:30 | 11,2 | 95 | 0 | 0 | 347 | 0 | 1042,8 |
| 2 | El Refugio | 07-05-2026 00:15 | 11,5 | 95 | 0 | 0 | 347 | 0 | 1042,8 |
| 1 | El Refugio | 07-05-2026 00:00 | 11,5 | 96 | 0 | 0 | 347 | 0 | 1042,8 |